Location: Limerick
(52.6650°N, 8.6230°W)
Time: 10:11:23
(UTC+01:00)

ISS - Visible Passes

Search period start: 22 July 2018 00:00
Search period end: 01 August 2018 00:00
Orbit: 402 x 408 km, 51.6° (Epoch: 22 July)

Date Brightness Start Highest point End Pass type
(mag) Time Alt. Az. Time Alt. Az. Time Alt. Az.
22 Jul -4.0 01:04:40 10° W 01:07:58 76° S 01:11:15 10° E visible
22 Jul -3.7 02:41:07 10° W 02:44:20 49° SSW 02:47:32 10° ESE visible
22 Jul -2.2 04:18:12 10° WSW 04:20:18 16° SW 04:22:22 10° S visible
22 Jul -3.0 22:36:43 10° SW 22:39:38 30° SSE 22:42:34 10° E visible
23 Jul -4.0 00:12:35 10° WSW 00:15:52 70° S 00:19:08 10° E visible
23 Jul -3.9 01:49:00 10° W 01:52:16 62° SSW 01:53:22 36° SE visible
23 Jul -1.4 03:25:43 10° W 03:25:52 11° W 03:25:52 11° W visible
23 Jul -3.8 23:20:31 10° WSW 23:23:46 60° SSE 23:27:01 10° E visible
24 Jul -4.0 00:56:53 10° W 01:00:10 72° S 01:01:45 28° ESE visible
24 Jul -1.8 02:33:25 10° W 02:34:21 16° W 02:34:21 16° W visible
24 Jul -3.5 22:28:31 10° SW 22:31:42 46° SSE 22:34:52 10° E visible
25 Jul -4.0 00:04:45 10° W 00:08:02 76° S 00:10:47 14° E visible
25 Jul -2.8 01:41:13 10° W 01:43:24 33° WSW 01:43:24 33° WSW visible
25 Jul -3.9 23:12:38 10° W 23:15:55 73° S 23:19:11 10° E visible
26 Jul -3.8 00:49:04 10° W 00:52:18 58° SSW 00:52:38 54° SSE visible
26 Jul -3.8 22:20:31 10° WSW 22:23:46 64° SSE 22:27:02 10° E visible
26 Jul -3.9 23:56:54 10° W 00:00:11 69° S 00:01:57 25° ESE visible
27 Jul -1.8 01:33:29 10° W 01:34:35 17° WSW 01:34:35 17° WSW visible
27 Jul -3.9 23:04:44 10° W 23:08:01 75° S 23:11:18 10° E visible
28 Jul -3.2 00:41:13 10° W 00:43:57 38° SW 00:43:57 38° SW visible
28 Jul -3.8 22:12:34 10° W 22:15:50 75° S 22:19:08 10° E visible
28 Jul -3.7 23:49:00 10° W 23:52:13 53° SSW 23:53:21 33° SE visible
29 Jul -1.1 01:25:57 10° W 01:26:00 10° W 01:26:00 10° W visible
29 Jul -3.8 22:56:48 10° W 23:00:04 65° S 23:02:47 14° ESE visible
30 Jul -2.2 00:33:27 10° W 00:35:25 23° SW 00:35:25 23° SW visible
30 Jul -3.1 23:41:06 10° W 23:44:09 35° SSW 23:44:52 31° S visible
31 Jul -3.4 22:48:50 10° W 22:52:01 48° SSW 22:54:20 17° SE visible
